Total_Precipitation_Accumulation
0.78 0.87 0.81 0.67 0.61 0.56 0.68 0.83 0.98 0.95 0.88 0.82 0.88 0.92 0.85 0.87 0.94 0.87 0.91 0.93 0.82 0.72 0.64 0.60 0.61 0.61 0.65 0.72 0.77 0.78 0.79 0.84 0.95 1.10 1.28 1.47 1.68 1.89
0.94 0.94 0.88 0.79 0.80 0.66 0.64 0.77 0.93 1.04 1.04 0.79 0.85 0.87 0.93 0.84 0.93 0.88 0.91 0.93 0.79 0.72 0.62 0.58 0.58 0.57 0.57 0.57 0.61 0.67 0.68 0.66 0.70 0.78 0.85 0.94 1.02 1.17
1.15 1.06 1.01 0.97 0.97 0.86 0.86 0.90 0.94 1.07 1.16 1.00 0.95 1.05 1.09 1.03 1.02 0.97 0.88 0.87 0.80 0.78 0.65 0.60 0.56 0.54 0.56 0.55 0.54 0.55 0.60 0.60 0.60 0.61 0.64 0.69 0.69 0.71
1.49 1.52 1.34 1.22 1.17 1.06 1.06 1.04 1.02 1.08 1.15 1.19 1.14 1.18 1.18 1.17 1.12 0.95 0.79 0.74 0.76 0.80 0.71 0.66 0.65 0.60 0.57 0.55 0.54 0.53 0.53 0.53 0.55 0.54 0.53 0.54 0.58 0.60
1.37 1.55 1.54 1.56 1.38 1.31 1.24 1.16 1.10 1.05 1.11 1.13 1.13 1.26 1.31 1.29 1.12 0.85 0.75 0.76 0.69 0.80 0.78 0.65 0.58 0.55 0.52 0.48 0.44 0.42 0.41 0.42 0.45 0.47 0.46 0.44 0.44 0.45
1.28 1.32 1.42 1.58 1.50 1.44 1.35 1.28 1.24 1.22 1.21 1.18 1.20 1.33 1.50 1.52 1.29 0.98 0.83 0.80 0.75 0.65 0.67 0.63 0.59 0.54 0.50 0.46 0.42 0.40 0.38 0.39 0.41 0.41 0.42 0.42 0.40 0.39
1.31 1.24 1.21 1.35 1.43 1.43 1.29 1.25 1.31 1.35 1.33 1.30 1.33 1.44 1.56 1.63 1.37 1.10 0.93 0.87 0.82 0.71 0.64 0.58 0.56 0.54 0.56 0.57 0.54 0.48 0.43 0.43 0.44 0.45 0.45 0.44 0.43 0.42
1.57 1.47 1.33 1.24 1.25 1.30 1.34 1.37 1.37 1.36 1.39 1.42 1.42 1.48 1.56 1.58 1.62 1.42 1.18 0.96 0.84 0.75 0.73 0.66 0.60 0.57 0.50 0.47 0.54 0.53 0.48 0.44 0.42 0.42 0.43 0.46 0.44 0.41
1.54 1.51 1.31 1.19 1.25 1.21 1.36 1.40 1.33 1.26 1.21 1.25 1.30 1.37 1.65 1.81 1.93 1.63 1.37 1.18 0.96 0.85 0.79 0.70 0.65 0.60 0.53 0.51 0.61 0.54 0.50 0.47 0.45 0.42 0.41 0.40 0.42 0.42
1.23 1.32 1.27 1.18 1.15 1.15 1.09 1.01 0.97 0.98 0.95 0.91 0.96 1.15 1.42 1.80 1.97 1.94 1.82 1.58 1.37 1.11 0.91 0.78 0.66 0.62 0.60 0.55 0.63 0.60 0.53 0.49 0.46 0.44 0.40 0.37 0.39 0.42
1.03 1.05 1.04 0.96 0.96 0.89 0.84 0.75 0.71 0.72 0.72 0.74 0.77 0.92 1.13 1.39 1.72 1.87 1.82 1.61 1.36 1.07 0.85 0.73 0.66 0.63 0.59 0.55 0.56 0.63 0.57 0.51 0.49 0.48 0.47 0.43 0.41 0.43
1.02 1.06 1.12 0.96 0.83 0.67 0.65 0.67 0.60 0.57 0.61 0.61 0.62 0.66 0.77 0.96 1.30 1.44 1.42 1.38 1.21 0.98 0.71 0.64 0.59 0.64 0.61 0.50 0.44 0.45 0.48 0.54 0.55 0.53 0.52 0.51 0.50 0.42
0.82 0.83 0.94 0.92 0.74 0.59 0.58 0.60 0.55 0.53 0.56 0.55 0.55 0.60 0.71 0.84 0.98 1.21 1.27 1.19 1.07 0.86 0.65 0.64 0.59 0.59 0.58 0.49 0.44 0.41 0.39 0.39 0.44 0.50 0.53 0.53 0.52 0.47
0.81 0.82 0.92 0.94 0.75 0.63 0.54 0.51 0.45 0.39 0.43 0.49 0.49 0.50 0.57 0.68 0.85 1.06 1.23 1.21 1.09 0.97 0.87 0.83 0.76 0.69 0.61 0.50 0.41 0.36 0.37 0.38 0.39 0.41 0.43 0.52 0.52 0.52
0.85 1.06 1.08 1.02 0.86 0.71 0.64 0.61 0.49 0.41 0.45 0.49 0.50 0.48 0.50 0.61 0.84 1.09 1.28 1.39 1.30 1.13 1.03 0.93 0.87 0.83 0.79 0.61 0.46 0.42 0.43 0.44 0.42 0.41 0.41 0.42 0.43 0.46
0.88 1.07 1.17 1.19 1.09 0.95 0.86 0.77 0.60 0.56 0.58 0.59 0.60 0.64 0.68 0.78 0.94 1.04 1.18 1.32 1.36 1.23 1.08 1.00 0.93 0.95 0.90 0.76 0.63 0.51 0.43 0.42 0.41 0.40 0.42 0.42 0.42 0.44
0.81 1.04 1.23 1.36 1.38 1.33 1.20 1.07 0.94 0.83 0.75 0.75 0.80 0.80 0.82 0.89 0.96 1.08 1.22 1.26 1.22 1.07 0.99 0.99 1.00 1.01 0.99 0.93 0.75 0.54 0.46 0.39 0.36 0.43 0.52 0.50 0.45 0.42
0.74 0.97 1.20 1.39 1.46 1.55 1.53 1.42 1.23 1.07 0.98 0.96 0.93 0.92 0.93 0.91 0.95 1.07 1.22 1.26 1.16 1.02 0.93 0.87 0.97 1.06 1.05 0.91 0.74 0.56 0.45 0.40 0.37 0.42 0.49 0.51 0.43 0.39
0.68 0.83 0.95 1.09 1.27 1.46 1.53 1.52 1.35 1.20 1.20 1.17 1.08 1.02 1.03 1.01 0.99 1.06 1.19 1.27 1.25 1.13 1.02 0.94 0.96 1.01 0.96 0.74 0.55 0.50 0.50 0.45 0.47 0.46 0.47 0.49 0.43 0.37
0.55 0.66 0.74 0.86 1.04 1.29 1.44 1.49 1.42 1.30 1.28 1.29 1.25 1.19 1.17 1.12 1.05 1.02 1.12 1.21 1.25 1.21 1.14 1.03 0.90 0.86 0.83 0.75 0.66 0.55 0.51 0.59 0.61 0.57 0.50 0.50 0.49 0.51
0.57 0.62 0.66 0.76 0.91 1.12 1.33 1.47 1.50 1.42 1.35 1.39 1.38 1.29 1.24 1.20 1.09 1.01 1.05 1.18 1.24 1.24 1.12 0.97 0.85 0.91 1.07 1.18 0.99 0.71 0.59 0.59 0.69 0.71 0.69 0.72 0.65 0.63
0.69 0.69 0.73 0.81 0.95 1.17 1.36 1.45 1.48 1.45 1.39 1.42 1.40 1.31 1.25 1.22 1.12 1.07 1.08 1.13 1.15 1.16 1.13 1.11 1.20 1.25 1.25 1.20 0.96 0.74 0.69 0.69 0.75 0.82 0.81 0.77 0.72 0.64
0.73 0.71 0.73 0.79 0.96 1.15 1.29 1.41 1.44 1.45 1.43 1.40 1.36 1.29 1.24 1.23 1.20 1.17 1.11 1.12 1.16 1.21 1.33 1.36 1.34 1.32 1.21 1.14 1.08 0.97 0.88 0.88 0.91 0.88 0.74 0.65 0.60 0.58